Regional Weather Roundup
Issued by NWS

Home | Current Version | Previous Version | Text Only | Print | Product List | Glossary Off
Versions: 1 2 3 4 5 6 7 8 9 10 11 12 13 14 15 16 17 18 19 20 21 22 23 24 25 26 27 28 29 30 31 32 33 34 35 36 37 38 39 40 41 42 43 44 45 46 47 48 49 50

000
ASUS43 KFSD 231310
RWRSD

WEATHER ROUNDUP FOR SOUTH DAKOTA
NATIONAL WEATHER SERVICE SIOUX FALLS SD
800 AM CDT WED JUL 23 2014

NOTE: "FAIR" INDICATES FEW OR NO CLOUDS BELOW 12,000 FEET WITH NO
SIGNIFICANT WEATHER AND/OR OBSTRUCTIONS TO VISIBILITY.


SDZ001>005-009-010-012>017-231400-
NORTHWEST AND NORTH CENTRAL SOUTH DAKOTA

CITY           SKY/WX    TMP DP  RH WIND       PRES   REMARKS
BUFFALO          N/A     63  60  90 E7        30.17S
FAITH            N/A     65  60  84 SE17      30.22F
MOBRIDGE       SUNNY     66  60  81 MISG      30.25R
$$

SDZ012>016-024>037-041>051-057-063-072>074-231400-
SOUTHWEST AND SOUTH CENTRAL SOUTH DAKOTA

CITY           SKY/WX    TMP DP  RH WIND       PRES   REMARKS
RAPID CTY ARPT MOSUNNY   65  55  70 SW5       30.23F
PIERRE         SUNNY     68  59  73 E15       30.22F
CUSTER         SUNNY     58  54  86 W3        30.39F
ELLSWORTH AFB  MOSUNNY   68  55  61 SW12      30.24R
PHILIP         PTSUNNY   70  60  70 NE7       30.21R
PINE RIDGE     CLOUDY    68  58  70 SE6       30.26F
WINNER         FAIR      70  59  68 SE14      30.25F
$$

SDZ004>011-016>023-039-040-231400-
NORTHEAST SOUTH DAKOTA

CITY           SKY/WX    TMP DP  RH WIND       PRES   REMARKS
ABERDEEN       PTSUNNY   63  59  87 E7        30.28F
WATERTOWN      SUNNY     64  55  72 E7        30.30S
SISSETON         N/A     65  59  81 CALM      30.29R
$$

SDZ017-020-022-023-036>040-048>070-231400-
SOUTHEAST SOUTH DAKOTA

CITY           SKY/WX    TMP DP  RH WIND       PRES   REMARKS
SIOUX FALLS    PTSUNNY   65  57  75 NE7       30.30R
HURON          PTSUNNY   65  57  75 SE8       30.28R
CHAMBERLAIN    PTSUNNY   65  60  83 SE8       30.28F
MITCHELL       CLOUDY    64  58  80 S6        30.30S
YANKTON        PTSUNNY   64  57  77 NE5       30.30F
$$

ABBREVIATIONS USED IN REMARKS
   TC - TEMPERATURE IN CELSIUS
  WCI - WIND CHILL INDEX
   HX - HEAT INDEX
  VSB - VISIBILITY



USA.gov is the U.S. government's official web portal to all federal, state and local government web resources and services.